Weather History for Spokane, WA

Change the Weather History Date:

Wednesday, June 12, 2013

  Actual Average Record
Temperature  
Mean Temperature 56 °F 61 °F  
Max Temperature 67 °F 73 °F 95 °F (1940)
Min Temperature 44 °F 50 °F 38 °F (1919)
Degree Days  
Heating Degree Days 9 5  
Month to date heating degree days 48 70  
Since 1 June heating degree days 48 70  
Since 1 July heating degree days 6148 6527  
Cooling Degree Days 0 1  
Month to date cooling degree days 13 12  
Year to date cooling degree days 43 26  
Since 1 June cooling degree days 13 12  
Growing Degree Days 5 (Base 50)    
Moisture  
Dew Point 35 °F    
Average Humidity 50    
Maximum Humidity 71    
Minimum Humidity 29    
Precipitation  
Precipitation 0.00 in 0.05 in 0.52 in (1992)
Month to date precipitation 0.10 0.61  
Year to date precipitation 5.03 8.24  
Snow  
Snow 0.00 in 0.00 in 0.00 in (2002)
Month to date snowfall 0.0 0.0  
Since 1 June snowfall 0.0 0.0  
Since 1 July snowfall 43.5 44.9  
Snow Depth 0.00 in    
Sea Level Pressure  
Sea Level Pressure 30.02 in    
Wind  
Wind Speed 9 mph (SSW)    
Max Wind Speed 15 mph    
Max Gust Speed 21 mph    
Visibility 10 miles    
Events      
T = Trace of Precipitation, MM = Missing Value Source: NWS Daily Summary

Daily Weather History Graph

Daily Weather History Graph

Search for Another Location

Airport:

Trip Planner

Search our weather history database for the weather conditions in past years. The results will help you decide how hot, cold, wet, or windy it might be!

Date:

Astronomy

Jun. 12, 2013 Rise Set
Actual Time 4:51 AM PDT 8:48 PM PDT
Civil Twilight 4:11 AM PDT 9:28 PM PDT
Nautical Twilight 3:15 AM PDT 10:24 PM PDT
Astronomical Twilight 1:48 AM PDT 11:53 PM PDT
Moon 8:48 AM PDT (6/12) 11:11 PM PDT (6/12)
Length of Visible Light 17h 17m
Length of Day
15h 56m
Waxing Crescent, 15% of the Moon is Illuminated
Jun 12
Waxing Crescent
Jun 16
First Quarter
Jun 23
Full
Jun 29
Last Quarter
Jul 8
New

Hourly Weather History & Observations

Time (PDT) Temp. Windchill Dew Point Humidity Pressure Visibility Wind Dir Wind Speed Gust Speed Precip Events Conditions
12:53 AM 48.9 °F - 36.0 °F 61% 30.01 in 10.0 mi SSE 9.2 mph - N/A   Clear
1:53 AM 48.9 °F - 35.1 °F 59% 30.02 in 10.0 mi South 10.4 mph - N/A   Clear
2:53 AM 48.9 °F - 36.0 °F 61% 30.02 in 10.0 mi SSW 10.4 mph - N/A   Mostly Cloudy
3:53 AM 46.9 °F - 36.0 °F 66% 30.03 in 10.0 mi South 6.9 mph - N/A   Mostly Cloudy
4:53 AM 46.0 °F 43.1 °F 36.0 °F 68% 30.03 in 10.0 mi SSW 5.8 mph - N/A   Partly Cloudy
5:53 AM 44.1 °F 40.1 °F 36.0 °F 73% 30.05 in 10.0 mi South 6.9 mph - N/A   Partly Cloudy
6:53 AM 46.9 °F - 37.9 °F 71% 30.05 in 10.0 mi South 9.2 mph - N/A   Partly Cloudy
7:53 AM 50.0 °F - 37.9 °F 63% 30.06 in 10.0 mi SSE 6.9 mph - N/A   Scattered Clouds
8:53 AM 54.0 °F - 37.0 °F 53% 30.05 in 10.0 mi SSW 9.2 mph - N/A   Scattered Clouds
9:53 AM 57.9 °F - 37.0 °F 46% 30.05 in 10.0 mi SW 11.5 mph - N/A   Scattered Clouds
10:53 AM 60.1 °F - 34.0 °F 38% 30.05 in 10.0 mi SW 11.5 mph - N/A   Scattered Clouds
11:53 AM 60.1 °F - 34.0 °F 38% 30.05 in 10.0 mi SW 10.4 mph - N/A   Mostly Cloudy
12:53 PM 63.0 °F - 34.0 °F 34% 30.04 in 10.0 mi Variable 3.5 mph 16.1 mph N/A   Mostly Cloudy
1:53 PM 64.9 °F - 34.0 °F 32% 30.04 in 10.0 mi SW 13.8 mph 18.4 mph N/A   Mostly Cloudy
2:53 PM 64.0 °F - 34.0 °F 33% 30.03 in 10.0 mi South 8.1 mph 18.4 mph N/A   Mostly Cloudy
3:53 PM 64.9 °F - 34.0 °F 32% 30.03 in 10.0 mi SSW 9.2 mph - N/A   Mostly Cloudy
4:53 PM 66.0 °F - 33.1 °F 29% 30.01 in 10.0 mi SW 10.4 mph 16.1 mph N/A   Scattered Clouds
5:53 PM 64.9 °F - 32.0 °F 29% 30.01 in 10.0 mi South 9.2 mph - N/A   Scattered Clouds
6:53 PM 64.9 °F - 33.1 °F 31% 30.00 in 10.0 mi South 10.4 mph - N/A   Scattered Clouds
7:53 PM 64.0 °F - 32.0 °F 30% 29.99 in 10.0 mi SSW 5.8 mph - N/A   Partly Cloudy
8:53 PM 61.0 °F - 34.0 °F 36% 29.98 in 10.0 mi SSW 4.6 mph - N/A   Partly Cloudy
9:53 PM 57.9 °F - 33.1 °F 39% 30.00 in 10.0 mi South 6.9 mph - N/A   Scattered Clouds
10:53 PM 57.0 °F - 33.1 °F 40% 30.00 in 10.0 mi SW 9.2 mph - N/A   Mostly Cloudy
11:53 PM 54.0 °F - 34.0 °F 47% 30.00 in 10.0 mi SW 8.1 mph - N/A   Clear